Regional Weather Roundup
Issued by NWS

Home | Current Version | Previous Version | Text Only | Print | Product List | Glossary On
Versions: 1 2 3 4 5 6 7 8 9 10 11 12 13 14 15 16 17 18 19 20 21 22 23 24 25 26 27 28 29 30 31 32 33 34 35 36 37 38 39 40 41 42 43 44 45 46 47 48 49 50
000
ASUS43 KMPX 241501
RWRMN
WEATHER ROUNDUP FOR MINNESOTA
NATIONAL WEATHER SERVICE TWIN CITIES/CHANHASSEN MN
1000 AM CDT SUN SEP 24 2017


NOTE: "FAIR" INDICATES FEW OR NO CLOUDS BELOW 12,000 FEET WITH NO
SIGNIFICANT WEATHER AND/OR OBSTRUCTIONS TO VISIBILITY. N/A MEANS
CURRENT SKY AND/OR WEATHER CONDITIONS ARE NOT AVAILABLE.

MNZ060>063-068>070-241600-
   Twin Cities Metro

CITY           SKY/WX    TMP DP  RH WIND       PRES   REMARKS
TWIN CITIES    PTSUNNY   77  66  68 S10       29.95S
ST PAUL        MOSUNNY   74  67  78 SE12      29.96S
CRYSTAL        SUNNY     77  64  64 S9        29.93S
BLAINE         PTSUNNY   79  66  65 S9        29.94S
LAKEVILLE      SUNNY     75  66  73 S8        29.96S
EDEN PRAIRIE   SUNNY     79  67  66 S13G18    29.93F
SOUTH ST PAUL  SUNNY     74  64  70 S5        29.96S
LAKE ELMO      FAIR      75  66  73 S13       29.98S
$$
MNZ001>005-007-008-013>017-022>024-027-028-241600-
   Northwest Minnesota

CITY           SKY/WX    TMP DP  RH WIND       PRES   REMARKS
BEMIDJI        CLOUDY    64  63  96 S8        29.85S
HALLOCK        DRIZZLE   52  52 100 N10       29.88F
ROSEAU         RAIN      55  50  82 N10       29.85F
CROOKSTON      DRIZZLE   54  54 100 N10G17    29.85F
FOSSTON        CLOUDY    61  61 100 S7        29.84S FOG
DETROIT LAKES  CLOUDY    64  63  94 S6        29.85F
MOORHEAD       CLOUDY    55  55 100 N7        29.84F FOG
PARK RAPIDS    CLOUDY    65  63  93 S9        29.86F
MAHNOMEN       CLOUDY    63  62  97 S7        29.84S FOG
$$
MNZ006-009>011-018-025>026-241600-
   North Central Minnesota

CITY           SKY/WX    TMP DP  RH WIND       PRES   REMARKS
BAUDETTE       LGT RAIN  59  59 100 E9        29.83F
FLAG ISLAND    RAIN      55  54  94 N10       29.85F
INTL FALLS     CLOUDY    64  62  93 SE7       29.85F
WASKISH        CLOUDY    57  57 100 E5        29.85F FOG
BIG FORK       PTSUNNY   68  64  88 S7        29.88R
LONGVILLE      MOSUNNY   68  64  88 S5        29.88S
GRAND RAPIDS   MOSUNNY   68  65  90 S9        29.91S
CRANE LAKE     SUNNY     66  66 100 S3        29.89F
ORR            SUNNY     70  64  83 S9        29.86S
COOK             N/A     72  66  83 S9        29.89F
WALKER         CLOUDY    64  63  94 S7        29.86F
$$
MNZ012-019>021-037-241600-
   Northeast Minnesota

CITY           SKY/WX    TMP DP  RH WIND       PRES   REMARKS
DULUTH         CLOUDY    66  66 100 S7        29.95S
ELY            SUNNY     72  66  83 S9        29.92S
HIBBING        MOSUNNY   69  66  90 S7        29.90F
EVELETH        MOSUNNY   73  67  80 S7        29.93S
DULUTH HARBOR  FOG       63  61  94 NE6       29.95S VSB 1/4
GRAND MARAIS     N/A     65  63  93 E9        29.95F
$$
MNZ029>031-032-039>041-046>048-054>057-064-241600-
   West Central Minnesota

CITY           SKY/WX    TMP DP  RH WIND       PRES   REMARKS
FERGUS FALLS   CLOUDY    64  64 100 S7        29.84S
WHEATON        CLOUDY    64  61  88 SE5       29.84F
ALEXANDRIA     MOSUNNY   69  65  86 S12       29.88F
ELBOW LAKE     CLOUDY    64  64 100 S10       29.85S FOG
WADENA         MOSUNNY   66  66 100 S9        29.86F
GLENWOOD       PTSUNNY   70  64  83 S15       29.88S
APPLETON       PTSUNNY   70  63  78 S9        29.84S
BENSON         CLOUDY    70  64  83 SW10      29.87F
ORTONVILLE     PTSUNNY   63  61  94 NE6       29.83F
MADISON        MOSUNNY   70  70 100 S7        29.84F
WILLMAR        FAIR      73  66  78 S7        29.89S
$$
MNZ033>034-036-042>043-049>051-058-059-241600-
   Central Minnesota

CITY           SKY/WX    TMP DP  RH WIND       PRES   REMARKS
ST CLOUD       MOSUNNY   73  69  87 S10       29.91S
SAUK CENTRE    FAIR      71  66  84 S12       29.89S
PAYNESVILLE    MOSUNNY   73  67  80 S8        29.90S
AITKIN         MOSUNNY   70  66  88 S10       29.88F
PINE RIVER     MOSUNNY   64  64 100 S7        29.92S
BRAINERD       MOSUNNY   72  66  81 S10       29.88F
STAPLES        MOSUNNY   66  66 100 S8        29.87F
LITTLE FALLS   MOSUNNY   68  64  88 S9        29.89S
LITCHFIELD     MOSUNNY   75  68  78 S7        29.91S
BUFFALO        SUNNY     76  65  68 S9        29.94S
MAPLE LAKE     SUNNY     76  68  78 S7        29.93S
HUTCHINSON     CLOUDY    75  68  79 S9        29.93S
$$
MNZ037-044-045-052-053-241600-
   East Central Minnesota

CITY           SKY/WX    TMP DP  RH WIND       PRES   REMARKS
PRINCETON      MOSUNNY   77  66  69 S12       29.92S
MORA           MOSUNNY   73  64  73 S7        29.94S
RUSH CITY      MOSUNNY   75  65  70 S8        29.94S
MOOSE LAKE     MOSUNNY   73  64  73 S7        29.91F
HINCKLEY       FAIR      73  66  78 S9        29.93F
CLOQUET        SUNNY     72  63  73 S7        29.94F
MCGREGOR       MOSUNNY   72  66  83 S10       29.91F
$$
MNZ071>073-080-081-089-090-097-098-241600-
   Southwest Minnesota

CITY           SKY/WX    TMP DP  RH WIND       PRES   REMARKS
MONTEVIDEO     MOSUNNY   70  66  88 S9        29.86S
GRANITE FALLS  MOSUNNY   72  67  84 S9        29.89S
CANBY          MOSUNNY   74  67  79 S10       29.86S
MARSHALL       MOSUNNY   73  66  78 S14       29.87S
REDWOOD FALLS  MOSUNNY   76  66  71 S14       29.89S
OLIVIA         MOSUNNY   75  64  69 S15       29.89S
PIPESTONE      MOSUNNY   73  64  73 S14       29.89S
WORTHINGTON    MOSUNNY   75  66  73 S12G20    29.93S
JACKSON        SUNNY     75  64  69 S13G20    29.95S
TRACY          MOSUNNY   73  67  79 S10G16    29.89F
SLAYTON        PTSUNNY   73  60  65 S10       29.92S HAZE
$$
MNZ065>067-074>077-082>085-091>093-241600-
   South Central Minnesota

CITY           SKY/WX    TMP DP  RH WIND       PRES   REMARKS
MANKATO        SUNNY     77  67  71 S10       29.95S
NEW ULM        SUNNY     75  66  73 S10       29.92S
ST JAMES       SUNNY     75  66  73 S15       29.94S
FAIRMONT       SUNNY     77  67  71 S14       29.95S
FARIBAULT      SUNNY     79  66  65 S7        29.98S
OWATONNA       SUNNY     79  66  65 S13       29.98S
WASECA         SUNNY     77  64  65 S12       29.98S
ALBERT LEA     SUNNY     79  66  65 S9        29.99S
$$
MNZ078>079-086>088-094>096-241600-
   Southeast Minnesota

CITY           SKY/WX    TMP DP  RH WIND       PRES   REMARKS
ROCHESTER      SUNNY     78  63  59 S14       30.01S
RED WING       MOSUNNY   79  63  57 S6        29.96F
STANTON        SUNNY     79  66  64 S7        29.96S
DODGE CENTER   MOSUNNY   81  61  50 S14       30.00S
WINONA         SUNNY     81  61  50 S3        30.00F
AUSTIN         SUNNY     75  63  64 S8        30.00F
PRESTON        SUNNY     76  62  62 S9        30.03S
$$
ABBREVIATIONS USED IN REMARKS
   TC - TEMPERATURES IN CELSIUS
  WCI - WIND CHILL INDEX
   HX - HEAT INDEX
  VSB - VISIBILITY
$$




USA.gov is the U.S. government's official web portal to all federal, state and local government web resources and services.